Weather History for KBIX - March, 2014

Change the Weather History Date:

Monday, March 24, 2014

  Actual Average Record
Temperature  
Mean Temperature 57 °F -  
Max Temperature 65 °F 69 °F 83 °F (1975)
Min Temperature 50 °F 51 °F 32 °F (1968)
Degree Days  
Heating Degree Days 8    
Growing Degree Days 7 (Base 50)    
Moisture  
Dew Point 45 °F    
Average Humidity 66    
Maximum Humidity 81    
Minimum Humidity 44    
Precipitation  
Precipitation 0.00 in - - ()
Sea Level Pressure  
Sea Level Pressure 30.08 in    
Wind  
Wind Speed 8 mph (NE)    
Max Wind Speed 13 mph    
Max Gust Speed -    
Visibility 10 miles    
Events Rain    
Averages and records for this station are not official NWS values.
T = Trace of Precipitation, MM = Missing Value Source: NWS Daily Summary

Daily Weather History Graph

Daily Weather History Graph

Search for Another Location

Airport or City:

Trip Planner

Search our weather history database for the weather conditions in past years. The results will help you decide how hot, cold, wet, or windy it might be!

Date:

Astronomy

Mar. 24, 2014 Rise Set
Actual Time 6:54 AM CDT 7:09 PM CDT
Civil Twilight 6:30 AM CDT 7:33 PM CDT
Nautical Twilight 6:02 AM CDT 8:01 PM CDT
Astronomical Twilight 5:34 AM CDT 8:30 PM CDT
Moon 2:01 AM CDT (3/24) 12:57 PM CDT (3/24)
Length of Visible Light 13h 03m
Length of Day
12h 15m
Last Quarter, 43% of the Moon is Illuminated
Mar 24
Last Quarter
Mar 30
New
Apr 7
First Quarter
Apr 15
Full
Apr 22
Last Quarter

Hourly Weather History & Observations

Time (CDT) Temp. Dew Point Humidity Pressure Visibility Wind Dir Wind Speed Gust Speed Precip Events Conditions
12:58 AM 53.8 °F 45.7 °F 74% 30.15 in 10.0 mi NNE 11.5 mph - N/A   Overcast
1:50 AM 53.6 °F 44.6 °F 72% 30.12 in 10.0 mi NE 6.9 mph - N/A Rain Light Rain
1:58 AM 53.2 °F 45.5 °F 75% 30.13 in 10.0 mi NE 9.2 mph - 0.00 in Rain Light Rain
2:03 AM 53.6 °F 46.4 °F 77% 30.12 in 10.0 mi NE 9.2 mph - N/A   Mostly Cloudy
2:58 AM 53.4 °F 44.8 °F 73% 30.14 in 10.0 mi NNE 8.1 mph - 0.00 in   Overcast
3:58 AM 52.5 °F 45.3 °F 76% 30.12 in 10.0 mi NNE 9.2 mph - N/A   Overcast
4:58 AM 51.4 °F 45.9 °F 81% 30.13 in 10.0 mi North 8.1 mph - N/A   Mostly Cloudy
5:58 AM 51.6 °F 45.0 °F 78% 30.13 in 10.0 mi NNE 9.2 mph - N/A   Overcast
6:58 AM 50.7 °F 44.4 °F 79% 30.12 in 10.0 mi NE 10.4 mph - N/A   Mostly Cloudy
7:58 AM 51.8 °F 43.2 °F 72% 30.14 in 10.0 mi ENE 12.7 mph - N/A   Overcast
8:58 AM 54.0 °F 41.7 °F 63% 30.14 in 10.0 mi NE 8.1 mph - N/A   Mostly Cloudy
9:58 AM 56.7 °F 41.5 °F 57% 30.15 in 10.0 mi NE 10.4 mph - N/A   Mostly Cloudy
10:58 AM 57.6 °F 41.2 °F 54% 30.15 in 10.0 mi NE 8.1 mph - N/A   Overcast
11:58 AM 59.2 °F 41.4 °F 52% 30.13 in 10.0 mi NE 8.1 mph - N/A   Mostly Cloudy
12:58 PM 60.8 °F 41.2 °F 48% 30.10 in 10.0 mi NNE 4.6 mph - N/A   Overcast
1:58 PM 61.2 °F 41.5 °F 48% 30.06 in 10.0 mi North 1.2 mph - N/A   Mostly Cloudy
2:58 PM 63.9 °F 41.7 °F 44% 30.03 in 10.0 mi Variable 2.3 mph - N/A   Overcast
3:58 PM 64.8 °F 43.7 °F 46% 30.00 in 10.0 mi SSW 5.8 mph - N/A   Mostly Cloudy
4:58 PM 63.5 °F 44.4 °F 50% 29.98 in 10.0 mi SSW 5.8 mph - N/A   Mostly Cloudy
5:58 PM 62.6 °F 45.7 °F 54% 30.00 in 10.0 mi SSW 4.6 mph - N/A   Scattered Clouds
6:58 PM 60.3 °F 47.1 °F 62% 29.99 in 10.0 mi South 4.6 mph - N/A   Mostly Cloudy
7:58 PM 58.6 °F 48.6 °F 69% 30.01 in 10.0 mi WSW 1.2 mph - N/A   Mostly Cloudy
8:58 PM 58.3 °F 48.4 °F 70% 30.01 in 10.0 mi SW 3.5 mph - N/A   Partly Cloudy
9:58 PM 57.9 °F 49.3 °F 73% 30.01 in 10.0 mi Calm Calm - N/A   Clear
10:58 PM 57.0 °F 51.1 °F 81% 30.03 in 10.0 mi Calm Calm - N/A   Scattered Clouds
11:58 PM 56.5 °F 50.2 °F 79% 30.05 in 10.0 mi Variable 1.2 mph - N/A   Clear